Hauptseite
METAR-TAF:

METAR-TAF

Flughäfen :

Militärflugplatz Emmen

Emmen, Schweiz

Breite: 47-05-32N, Länge: 8-18-16E, Höhe: 426 m

Beobachtung

Neuester Wetterbericht von vor 23 Minuten, um 10:50 UTC
Wind 2 kt aus unterschiedlichen Richtungen
Temperatur 24°C
Luftfeuchtigkeit 50%
Luftdruck 1017 hPa
Sichtweite 10 km oder mehr
Leicht bewölkt in der Höhe von 4500 ft

METAR: LSME 191050Z VRB02KT 9999 FEW045 24/13 Q1017 RMK BLU+

Zeit: 13:13 (11:13 UTC)


TAF: fehlend

Wetterbeobachtungen und Prognosen von mehr als 4000 Flughäfen (METAR und TAF Bericht).

Die verfügbaren Stationen werden durch gelbe und rote Markierungen auf der Karte dargestellt.

Führen Sie die Maus auf sie, um den Namen der Station zu sehen.

Darauf klicken, um die Beobachtung von Wetterbeobachtungen und Prognosen zu sehen.

Um die Karte zu ändern : klicken Sie auf den grünen Tasten mit einem schwarzen Kreuz Zum Vergrößern, auf den grünen Button mit einem Gedankenstrich zu verkleinern, oder auf die grünen Pfeile für benachbarte Karten.


METAR-TAF: